DW8923 Weather Reports


time (UTC)temp
F
wind
direction
speed
knots
gust
knots
rain 1hr
in
rain 24hr
in
rain mn
in
humidity
%
barometer
mb
20260903080015 80 124 1.7 7.8 0.00 0.00 0.00 82 1010.8
20260903074513 80 156 1.7 7.8 0.00 0.00 0.00 81 1010.9
20260903073012 79 176 3.5 7.0 0.00 0.00 0.00 81 1010.9
20260903071511 79 165 1.7 6.1 0.00 0.00 0.00 81 1011.0
20260903070010 79 139 1.7 4.3 0.00 0.00 0.00 81 1011.1
20260903064508 80 150 2.6 6.1 0.00 0.00 0.00 81 1011.1
20260903063006 80 124 2.6 6.1 0.00 0.00 0.00 81 1011.3
20260903061506 80 83 1.7 7.0 0.00 0.00 0.00 80 1011.3
20260903060004 80 102 2.6 6.1 0.00 0.00 0.00 80 1011.4
20260903054502 80 163 1.7 9.6 0.00 0.00 0.00 79 1011.5
20260903053100 81 129 1.7 7.8 0.00 0.00 0.00 78 1011.4
20260903051603 81 128 3.5 7.0 0.00 0.00 0.00 76 1011.3
20260903050056 81 146 2.6 7.8 0.00 0.00 0.00 74 1011.3
20260903044555 81 93 1.7 7.0 0.00 0.00 0.00 73 1011.2
20260903043053 82 88 1.7 5.2 0.00 0.00 0.00 72 1011.2
20260903041557 82 150 0.9 7.0 0.00 0.00 0.00 71 1011.2
20260903040053 82 83 5.2 10.4 0.00 0.00 0.00 71 1011.3
20260903034559 82 105 2.6 7.8 0.00 0.00 0.00 74 1011.3
20260903033051 83 62 1.7 7.8 0.00 0.00 0.00 73 1011.2
20260903031552 82 116 1.7 7.0 0.00 0.00 0.00 72 1010.9
20260903030051 81 107 1.7 7.0 0.00 0.00 0.00 75 1010.6
20260903024553 83 109 1.7 4.3 0.00 0.00 0.00 70 1010.5
20260903023112 87 107 0.0 0.0 0.00 0.00 0.00 61 1010.0
20260903021549 88 107 0.0 1.7 0.00 0.00 0.00 60 1009.6
20260903020148 89 38 0.0 1.7 0.00 0.00 0.00 54 1009.4
20260903014547 90 59 0.0 1.7 0.00 0.00 0.00 53 1009.2
20260903013050 91 60 0.0 1.7 0.00 0.00 0.00 52 1009.1
20260903011546 91 62 0.9 1.7 0.00 0.00 0.00 51 1009.2
20260903010045 92 22 0.0 0.9 0.00 0.00 0.00 50 1009.0
20260903004543 93 156 0.0 0.9 0.00 0.00 0.00 49 1009.1
20260903003043 94 156 0.0 0.9 0.00 0.00 0.00 48 1009.1
20260903001542 94 156 0.0 1.7 0.00 0.00 0.00 48 1009.0
20260903000043 95 156 0.0 1.7 0.00 0.00 0.00 45 1009.0
20260902234541 95 155 1.7 3.5 0.00 0.00 0.00 44 1009.0
20260902233041 96 107 0.0 2.6 0.00 0.00 0.00 43 1009.0
20260902231542 96 166 1.7 6.1 0.00 0.00 0.00 42 1009.1
20260902230042 99 225 1.7 7.8 0.00 0.00 0.00 41 1009.0
20260902224538 100 30 1.7 4.3 0.00 0.00 0.00 38 1008.8
20260902223037 99 30 0.9 6.1 0.00 0.00 0.00 39 1008.8
20260902221536 98 59 1.7 4.3 0.00 0.00 0.00 40 1008.9
20260902220033 98 298 0.0 7.8 0.00 0.00 0.00 40 1009.1
20260902214531 99 20 1.7 4.3 0.00 0.00 0.00 40 1009.2
20260902213032 99 275 0.9 6.1 0.00 0.00 0.00 38 1009.3
20260902211529 101 342 1.7 4.3 0.00 0.00 0.00 36 1009.2
20260902210026 99 190 0.0 4.3 0.00 0.00 0.00 39 1009.3
20260902204523 98 271 1.7 4.3 0.00 0.00 0.00 39 1009.6
20260902203020 98 217 0.9 4.3 0.00 0.00 0.00 40 1009.9
20260902201522 98 325 0.9 2.6 0.00 0.00 0.00 42 1010.1
20260902200015 98 271 0.0 3.5 0.00 0.00 0.00 42 1010.3
20260902194520 97 296 0.9 5.2 0.00 0.00 0.00 43 1010.6
20260902193011 98 257 0.9 6.1 0.00 0.00 0.00 43 1010.8
20260902191513 100 247 0.9 7.0 0.00 0.00 0.00 40 1010.9
20260902190007 101 109 0.9 5.2 0.00 0.00 0.00 39 1011.1
20260902184503 100 197 0.9 7.0 0.00 0.00 0.00 40 1011.4
20260902183001 99 219 1.7 4.3 0.00 0.00 0.00 41 1011.7
20260902181559 100 79 0.9 5.2 0.00 0.00 0.00 42 1011.9
20260902180055 98 263 0.9 4.3 0.00 0.00 0.00 43 1012.4
20260902174550 98 227 0.0 3.5 0.00 0.00 0.00 42 1012.6
20260902173049 97 300 1.7 6.1 0.00 0.00 0.00 45 1012.9
20260902171559 96 304 0.0 4.3 0.00 0.00 0.00 47 1013.0
20260902170040 96 273 1.7 5.2 0.00 0.00 0.00 46 1013.2
20260902164538 96 311 2.6 7.0 0.00 0.00 0.00 45 1013.4
20260902163036 95 273 0.9 7.0 0.00 0.00 0.00 48 1013.5
20260902161532 93 137 0.9 4.3 0.00 0.00 0.00 53 1013.6
20260902160028 92 159 0.9 1.7 0.00 0.00 0.00 54 1013.7
20260902154526 90 302 1.7 4.3 0.00 0.00 0.00 56 1013.6
20260902153019 88 225 0.9 3.5 0.00 0.00 0.00 59 1013.8
20260902151515 87 26 0.0 2.6 0.00 0.00 0.00 62 1013.7
20260902150015 85 360 0.0 2.6 0.00 0.00 0.00 66 1013.7
20260902144507 83 5 0.9 2.6 0.00 0.00 0.00 69 1013.8
20260902143006 82 242 0.9 3.5 0.00 0.00 0.00 75 1013.8
20260902141503 81 207 0.9 2.6 0.00 0.00 0.00 75 1013.7
20260902140004 80 271 0.0 1.7 0.00 0.00 0.00 81 1013.6
20260902134501 80 218 0.0 1.7 0.00 0.00 0.00 82 1013.6
20260902133108 77 230 0.0 0.9 0.00 0.00 0.00 84 1013.5
20260902131558 75 229 0.0 0.0 0.00 0.00 0.00 86 1013.3
20260902130058 74 229 0.0 1.7 0.00 0.00 0.00 87 1013.1
20260902124557 74 36 0.0 0.0 0.00 0.00 0.00 86 1013.0
20260902123108 74 36 0.0 0.0 0.00 0.00 0.00 85 1013.0
20260902121555 74 36 0.0 0.0 0.00 0.00 0.00 86 1013.0
20260902120054 74 36 0.0 1.7 0.00 0.00 0.00 86 1012.9
20260902114555 74 17 1.7 3.5 0.00 0.00 0.00 86 1012.9
20260902113054 74 178 0.0 0.0 0.00 0.00 0.00 84 1012.7
20260902111552 75 178 0.0 0.0 0.00 0.00 0.00 84 1012.6
20260902104554 75 120 0.0 1.7 0.00 0.00 0.00 84 1012.5
20260902103048 75 120 0.0 0.9 0.00 0.00 0.00 83 1012.5
20260902101547 75 120 0.0 0.0 0.00 0.00 0.00 82 1012.6
20260902100045 76 120 0.0 0.0 0.00 0.00 0.00 81 1012.7
20260902094545 76 120 0.0 0.0 0.00 0.00 0.00 81 1012.7
20260902093043 77 120 0.0 0.0 0.00 0.00 0.00 81 1012.8
20260902091539 77 120 0.0 0.0 0.00 0.00 0.00 81 1012.8
20260902090038 77 120 0.0 0.0 0.00 0.00 0.00 80 1012.9
20260902084542 77 120 0.0 0.0 0.00 0.00 0.00 80 1012.8
20260902083035 77 120 0.0 2.6 0.00 0.00 0.00 79 1012.8
20260902081536 78 93 0.0 1.7 0.00 0.00 0.00 79 1012.9